Zurück zum Katalog

STARLINK-31349

AktivKommunikationVLEO
NORAD 59317·PAYLOAD·🇺🇸 United States

Gestartet Mar 24, 2024 von Cape Canaveral Space Force Station

Loading…

Nächste Überflüge (nächste 24 Stunden)

TLE

AktuellSource: CelesTrak SupGP

Epoche: Sep 14, 2026, 21:12 UTC

1 59317C 24056X   26257.88381944  .00032393  00000+0  11735-2 0  2574
2 59317  42.9990 242.1644 0001416 265.2807 322.2155 15.27557470    19

Verfolge STARLINK-31349 in Echtzeit mit AllMySat

Download on the App Store